カタログに戻る

INTELSAT 3-F2

運用中通信GEO
NORAD 3623·PAYLOAD· XX

打ち上げ Dec 19, 1968 から Cape Canaveral Space Force Station

Loading…

TLE

最新Source: Space-Track

元期: Sep 14, 2026, 06:45 UTC

1 03623U 68116A   26257.28140433 -.00000122  00000-0  00000-0 0  9999
2 03623   3.8019 298.2266 0090527  89.5718  23.1190  0.90194593 83583

AllMySatでINTELSAT 3-F2をリアルタイム追跡

Download on the App Store